Morgantown, WV

2:50 AM EDT on July 29, 2016 (GMT -0400)
Morgantown Municipal-Hart

Weather History for KMGW - March, 2012

Change the Weather History Date:

Monday, March 5, 2012

  Actual Average Record
Temperature  
Mean Temperature 31 °F 38 °F  
Max Temperature 35 °F 48 °F 80 °F (1983)
Min Temperature 27 °F 29 °F 5 °F (2015)
Degree Days  
Heating Degree Days 34 27  
Month to date heating degree days 122 136  
Since 1 July heating degree days 3430 4025  
Cooling Degree Days 0 0  
Month to date cooling degree days 0 0  
Year to date cooling degree days 0 0  
Moisture  
Dew Point 21 °F    
Average Humidity 65    
Maximum Humidity 85    
Minimum Humidity 45    
Precipitation  
Precipitation 0.01 in 0.11 in 1.07 in (2015)
Month to date precipitation 0.31 0.54  
Year to date precipitation 5.54 5.95  
Sea Level Pressure  
Sea Level Pressure 30.18 in    
Wind  
Wind Speed 4 mph (WNW)    
Max Wind Speed 14 mph    
Max Gust Speed 22 mph    
Visibility 7 miles    
Events Fog , Snow    
T = Trace of Precipitation, MM = Missing Value Source: NWS Daily Summary

Daily Weather History Graph

Daily Weather History Graph

Search for Another Location

Airport or City:

Trip Planner

Search our weather history database for the weather conditions in past years. The results will help you decide how hot, cold, wet, or windy it might be!

Date:

Astronomy

Mar. 05, 2012 Rise Set
Actual Time 6:45 AM EST 6:16 PM EST
Civil Twilight 6:19 AM EST 6:43 PM EST
Nautical Twilight 5:47 AM EST 7:14 PM EST
Astronomical Twilight 5:16 AM EST 7:46 PM EST
Moon 3:33 PM EST (3/5) 4:43 AM EST (3/5)
Length of Visible Light 12h 24m
Length of Day
11h 30m
Waxing Gibbous, 91% of the Moon is Illuminated
Mar 5
Waxing Gibbous
Mar 8
Full
Mar 14
Last Quarter
Mar 22
New
Mar 30
First Quarter

Hourly Weather History & Observations

Time (EST) Temp. Windchill Dew Point Humidity Pressure Visibility Wind Dir Wind Speed Gust Speed Precip Events Conditions
12:53 AM 28.0 °F 24.2 °F 21.0 °F 75% 29.92 in 10.0 mi South 3.5 mph - N/A   Scattered Clouds
1:53 AM 28.9 °F 25.2 °F 21.0 °F 72% 29.92 in 10.0 mi SSW 3.5 mph - N/A   Overcast
2:53 AM 30.0 °F 24.1 °F 19.9 °F 66% 29.91 in 10.0 mi SW 5.8 mph - N/A   Overcast
3:53 AM 30.0 °F 25.2 °F 19.0 °F 64% 29.91 in 10.0 mi SSW 4.6 mph - N/A   Overcast
4:53 AM 30.0 °F - 19.9 °F 66% 29.91 in 10.0 mi Calm Calm - N/A   Mostly Cloudy
5:53 AM 30.0 °F - 21.0 °F 69% 29.94 in 10.0 mi Calm Calm - N/A   Overcast
6:53 AM 30.0 °F - 21.0 °F 69% 29.96 in 10.0 mi Calm Calm - N/A   Overcast
7:53 AM 30.9 °F - 21.0 °F 67% 30.01 in 10.0 mi Calm Calm - N/A   Overcast
8:53 AM 30.9 °F 26.2 °F 19.9 °F 64% 30.06 in 10.0 mi NW 4.6 mph - N/A   Overcast
9:32 AM 32.0 °F 27.5 °F 21.2 °F 64% 30.04 in 10.0 mi NW 4.6 mph - N/A   Overcast
9:53 AM 32.0 °F - 21.9 °F 66% 30.09 in 10.0 mi Calm Calm - 0.00 in Snow Light Snow
10:53 AM 33.1 °F 27.7 °F 21.9 °F 64% 30.14 in 6.0 mi WNW 5.8 mph - 0.00 in Snow Light Snow
11:18 AM 33.8 °F 28.6 °F 21.2 °F 60% 30.11 in 5.0 mi Variable 5.8 mph - 0.00 in Snow Light Snow
11:21 AM 33.8 °F 28.6 °F 21.2 °F 60% 30.11 in 5.0 mi NW 5.8 mph - 0.00 in Snow Light Snow
11:30 AM 30.2 °F 22.6 °F 24.8 °F 80% 30.12 in 0.8 mi WNW 8.1 mph - 0.00 in Snow Light Snow
11:46 AM 30.2 °F 22.6 °F 26.6 °F 86% 30.12 in 1.8 mi West 8.1 mph - 0.00 in Snow Light Snow
11:53 AM 30.9 °F 23.5 °F 26.1 °F 82% 30.17 in 1.8 mi WNW 8.1 mph - 0.00 in Snow Light Snow
11:57 AM 30.2 °F 23.4 °F 26.6 °F 86% 30.13 in 2.5 mi West 6.9 mph - 0.00 in Snow Light Snow
12:05 PM 33.8 °F 27.7 °F 26.6 °F 75% 30.13 in 8.0 mi West 6.9 mph - 0.00 in   Overcast
12:24 PM 30.2 °F 21.3 °F 26.6 °F 86% 30.14 in 4.0 mi North 10.4 mph 19.6 mph 0.00 in   Haze
12:28 PM 30.2 °F 19.8 °F 26.6 °F 86% 30.14 in 1.5 mi North 13.8 mph 19.6 mph 0.00 in Snow Light Snow
12:31 PM 30.2 °F 21.3 °F 26.6 °F 86% 30.15 in 0.5 mi North 10.4 mph 19.6 mph 0.00 in Fog , Snow Light Snow
12:38 PM 30.2 °F 21.9 °F 26.6 °F 86% 30.15 in 0.2 mi NW 9.2 mph 16.1 mph 0.00 in Fog , Snow Light Snow
12:53 PM 30.0 °F 26.5 °F 27.0 °F 88% 30.20 in 1.0 mi NW 3.5 mph - 0.00 in Snow Light Snow
1:01 PM 30.2 °F 26.7 °F 26.6 °F 86% 30.16 in 2.0 mi Variable 3.5 mph - 0.00 in Snow Light Snow
1:09 PM 32.0 °F 27.5 °F 26.6 °F 80% 30.16 in 9.0 mi WNW 4.6 mph - 0.01 in   Overcast
1:21 PM 33.8 °F 29.6 °F 24.8 °F 70% 30.17 in 10.0 mi NNW 4.6 mph - 0.01 in   Overcast
1:53 PM 34.0 °F 26.0 °F 21.9 °F 61% 30.22 in 10.0 mi NNW 10.4 mph 18.4 mph 0.01 in   Overcast
2:04 PM 33.8 °F 26.4 °F 21.2 °F 60% 30.19 in 10.0 mi WNW 9.2 mph 19.6 mph N/A   Overcast
2:17 PM 32.0 °F 24.2 °F 19.4 °F 60% 30.20 in 10.0 mi NW 9.2 mph 17.3 mph N/A   Overcast
2:53 PM 33.1 °F 26.9 °F 19.0 °F 56% 30.26 in 10.0 mi NW 6.9 mph 20.7 mph N/A   Overcast
3:53 PM 33.1 °F 25.5 °F 17.1 °F 52% 30.30 in 10.0 mi NW 9.2 mph 16.1 mph N/A   Overcast
4:53 PM 33.1 °F 27.7 °F 15.1 °F 48% 30.33 in 10.0 mi Variable 5.8 mph - N/A   Overcast
5:53 PM 32.0 °F 24.8 °F 14.0 °F 48% 30.36 in 10.0 mi WNW 8.1 mph - N/A   Overcast
6:26 PM 30.2 °F 21.9 °F 21.2 °F 69% 30.35 in 4.0 mi West 9.2 mph 18.4 mph 0.00 in Snow Light Snow
6:35 PM 30.2 °F 23.4 °F 21.2 °F 69% 30.36 in 8.0 mi WNW 6.9 mph - 0.00 in Snow Light Snow
6:53 PM 30.0 °F 23.2 °F 19.9 °F 66% 30.40 in 9.0 mi West 6.9 mph - 0.00 in   Mostly Cloudy
7:53 PM 30.0 °F 24.1 °F 19.0 °F 64% 30.44 in 10.0 mi WNW 5.8 mph - N/A   Mostly Cloudy
8:53 PM 30.0 °F 24.1 °F 15.1 °F 54% 30.47 in 10.0 mi WNW 5.8 mph - N/A   Overcast
9:53 PM 28.9 °F 22.8 °F 14.0 °F 54% 30.49 in 10.0 mi WNW 5.8 mph - N/A   Mostly Cloudy
10:53 PM 28.0 °F - 12.9 °F 53% 30.51 in 10.0 mi Calm Calm - N/A   Partly Cloudy
11:53 PM 27.0 °F - 12.9 °F 56% 30.51 in 10.0 mi Calm Calm - N/A   Clear